Temperature
25 24 23 24 24 24 25 24 24 24 25 25 24 24 24 24 23 23 23 22 22 21 20 20 19 19 19 19 18 18 17 17 17 17 16 16 16 16 16 16 16 16 15 15
24 23 25 25 25 25 24 24 24 24 25 25 24 24 24 24 23 23 22 22 22 21 20 20 19 19 18 18 18 18 17 17 17 16 16 16 16 16 16 16 16 15 15 15
24 24 25 25 24 24 24 24 24 24 24 24 23 23 23 24 23 22 22 22 22 21 20 20 19 19 18 18 18 17 17 17 16 16 16 16 16 16 16 15 15 15 15 15
24 25 25 24 24 24 23 25 24 24 23 22 23 21 23 23 23 22 22 22 21 21 20 19 19 18 18 18 17 17 17 17 16 16 16 16 16 15 15 15 15 15 15 15
24 24 24 24 24 24 24 25 24 24 23 22 23 22 23 23 22 22 22 22 21 21 20 19 19 18 18 17 17 17 17 16 16 16 16 16 15 15 15 15 15 15 15 15
24 25 24 24 24 25 25 24 24 24 23 21 23 22 22 23 23 22 22 22 21 20 20 19 18 18 17 17 17 17 16 16 16 16 16 16 15 15 15 15 15 15 15 15
23 24 24 24 24 24 24 22 21 21 21 21 23 23 22 23 24 23 22 22 21 20 19 19 18 17 17 17 17 16 16 16 16 16 15 15 15 15 15 15 15 15 15 14
22 23 23 24 23 23 23 23 21 20 21 22 23 22 22 24 24 23 22 21 21 20 19 18 18 17 17 17 16 16 16 16 16 15 15 15 15 15 15 15 15 15 14 14
22 22 23 24 24 24 23 23 23 22 22 21 22 22 23 23 23 22 22 21 20 19 19 18 17 17 17 16 16 16 15 15 15 15 15 15 15 15 15 15 15 14 14 14
22 21 23 23 23 23 23 23 22 21 20 20 22 22 21 21 22 22 21 21 20 19 19 18 17 17 16 16 16 15 15 15 15 15 15 15 15 15 15 14 14 14 14 14
22 21 22 22 22 22 22 22 22 21 21 20 20 21 23 22 22 21 21 20 20 19 18 18 17 17 16 16 16 15 15 15 15 14 14 14 14 14 14 14 14 14 14 14
21 20 21 22 23 23 23 22 22 20 20 21 20 20 23 22 22 21 21 20 20 19 18 18 17 16 16 16 15 15 15 14 14 14 14 14 14 14 14 14 14 14 14 14
19 19 20 20 21 22 22 22 22 21 20 20 19 20 22 22 21 21 21 20 19 18 18 17 17 16 16 15 15 15 15 14 14 14 14 14 14 14 13 13 13 13 13 13
18 19 19 19 20 21 21 21 22 21 19 20 20 20 21 21 20 20 20 19 19 18 17 17 16 16 15 15 15 15 14 14 14 14 14 13 13 13 13 13 13 13 13 13
19 18 19 19 20 20 20 21 21 20 20 20 20 20 21 20 20 20 20 19 18 17 17 16 16 15 15 15 15 14 14 14 14 13 13 13 13 13 13 13 13 13 13 13
18 18 18 19 20 20 20 20 20 20 20 20 20 20 21 21 20 20 19 18 18 17 16 16 16 15 15 14 14 14 14 14 13 13 13 13 13 13 13 13 12 12 12 12
18 18 17 17 19 19 19 20 20 20 20 20 19 20 20 20 20 19 19 18 17 17 16 16 15 15 15 14 14 14 13 13 13 13 13 13 13 13 12 12 12 12 12 12
18 17 17 17 17 17 19 20 20 20 20 20 20 20 20 19 19 19 18 17 17 16 16 15 15 15 14 14 14 13 13 13 13 13 12 12 12 12 12 12 12 12 11 11
18 17 16 16 16 17 19 19 19 19 19 20 19 19 19 19 18 18 17 17 16 16 15 15 15 14 14 14 13 13 13 12 12 12 12 12 12 12 12 12 11 11 11 11
18 18 16 16 15 16 17 18 19 18 17 18 18 18 18 18 16 16 16 16 15 15 15 14 14 14 13 13 13 13 12 12 12 12 12 12 12 11 11 11 11 11 11 11
16 16 16 15 15 16 17 17 18 16 16 17 17 17 17 16 16 16 15 15 15 14 14 14 13 13 13 13 12 12 12 12 12 11 11 11 11 11 11 11 11 11 10 10
16 16 16 16 15 15 17 17 16 16 17 16 16 16 16 15 15 14 14 14 14 14 13 13 13 12 12 12 12 12 11 11 11 11 11 11 11 11 11 11 10 10 10 10
16 16 15 16 15 16 16 16 16 15 16 16 15 15 15 14 14 13 13 13 13 13 13 12 12 12 12 12 11 11 11 11 11 11 10 10 10 10 10 10 10 10 10 10
16 16 16 15 16 16 15 15 15 15 15 15 14 14 14 13 13 13 13 12 13 12 12 12 12 11 11 11 11 11 11 11 10 10 10 10 10 10 10 10 9 10 9 9
15 15 15 15 15 15 15 15 14 14 14 14 13 13 13 13 12 12 12 12 12 12 12 11 11 11 11 10 10 10 10 10 10 10 10 10 10 9 9 9 9 9 9 9
15 14 14 14 15 15 14 14 14 13 13 13 13 12 12 12 12 12 11 11 11 11 11 11 11 10 10 10 10 10 10 9 9 9 9 9 9 9 9 9 8 8 8 8
Wind_Speed
8 8 7 6 7 7 6 6 4 4 5 6 7 7 5 8 7 6 5 7 8 8 8 7 7 6 5 5 5 5 5 3 4 3 2 2 2 2 2 2 3 3 4 5
7 9 7 6 6 8 8 7 6 3 3 4 5 6 5 6 8 6 5 6 7 7 8 8 8 6 5 5 4 5 5 4 3 3 2 2 2 2 2 2 2 2 3 4
9 5 5 6 7 8 8 6 6 4 2 5 5 6 6 5 6 6 5 4 6 7 7 8 8 6 5 5 4 5 4 4 4 4 2 2 2 1 2 2 2 1 2 3
7 6 6 7 8 8 7 5 6 7 5 5 6 4 5 7 7 8 6 4 3 6 7 7 7 7 5 4 4 4 4 4 4 4 3 3 3 2 2 2 2 2 2 3
5 5 6 8 7 7 6 6 8 9 7 7 8 6 4 6 7 7 7 6 4 5 7 7 7 7 7 6 4 4 4 4 4 4 3 3 2 2 2 2 3 2 2 2
8 5 5 5 6 7 6 7 9 9 6 8 9 6 3 4 6 7 7 7 6 6 7 7 7 6 6 6 5 4 4 4 4 4 4 3 3 2 2 2 2 2 2 2
9 9 7 5 7 6 7 5 4 4 5 6 5 4 2 4 5 6 6 7 6 6 7 6 6 7 6 6 5 4 4 4 4 4 3 3 3 3 2 2 3 2 2 2
8 7 7 5 6 5 7 7 4 3 4 3 3 3 3 6 7 6 5 6 6 5 6 6 6 6 6 6 5 5 5 4 4 3 3 2 2 2 2 2 2 2 2 2
5 2 4 4 4 6 6 6 6 6 8 6 3 3 4 6 6 6 6 5 5 5 5 6 6 6 6 6 5 5 5 4 4 3 3 3 2 2 2 2 3 2 2 2
6 6 5 5 4 7 7 5 4 4 4 5 4 4 3 6 6 6 5 5 4 4 4 5 5 5 5 5 5 5 4 4 3 3 2 2 2 2 2 2 2 3 3 3
8 7 6 6 7 7 7 7 6 4 5 4 3 1 3 4 5 5 5 4 4 3 4 4 4 4 5 5 5 5 5 4 3 3 2 2 2 2 2 2 2 2 2 3
6 5 7 7 6 5 7 8 7 5 5 5 5 1 3 5 4 3 3 4 5 4 4 4 4 4 4 4 4 4 4 4 4 3 3 2 2 2 2 2 2 2 2 2
6 5 6 5 5 5 6 7 8 6 6 6 6 2 3 4 3 3 3 3 4 4 4 4 4 3 3 3 3 4 4 4 4 3 2 2 2 2 2 1 1 1 2 2
4 6 8 7 5 4 6 7 7 7 6 7 7 4 2 1 2 3 3 3 4 3 3 3 3 3 2 3 3 3 2 3 3 3 3 2 2 2 1 1 1 1 2 2
4 7 9 9 9 8 8 9 8 9 9 10 8 6 4 1 1 2 1 2 3 3 2 2 2 2 2 2 2 2 2 2 2 3 3 3 3 2 1 1 2 1 1 1
5 7 9 10 10 9 10 11 11 11 10 11 10 8 3 2 0 1 2 2 2 2 2 1 1 2 2 2 2 2 2 2 2 3 3 3 3 3 2 2 2 2 2 1
5 7 8 8 8 9 10 9 10 9 9 9 9 6 1 2 2 1 1 2 2 2 2 2 1 1 1 2 2 2 2 2 2 2 2 2 3 2 2 3 3 3 2 2
8 7 5 7 7 9 4 3 3 5 6 5 4 4 2 2 2 1 1 2 2 1 1 0 0 0 0 1 1 0 1 2 2 2 3 3 2 2 2 2 3 3 2 2
8 7 5 5 7 8 6 2 2 4 6 4 4 4 2 3 2 1 2 3 2 1 1 1 1 1 1 1 1 0 1 1 1 1 1 1 2 2 3 3 3 3 2 2
7 7 6 6 7 6 1 5 5 4 4 5 5 4 3 2 2 1 3 3 3 2 2 2 2 1 1 1 1 0 1 1 1 1 1 1 2 2 3 4 3 3 2 2
5 6 8 8 8 5 2 3 3 2 2 5 5 5 4 3 3 2 3 2 2 2 2 2 2 1 1 1 0 1 1 1 0 1 1 1 1 2 4 4 3 3 3 2
5 4 5 6 7 5 2 2 2 3 4 5 5 6 5 4 3 2 2 2 2 1 1 1 0 1 0 0 0 1 1 1 1 1 1 1 2 2 3 3 3 3 3 3
4 3 3 3 2 1 2 2 4 5 5 5 5 4 4 4 3 2 2 2 2 1 0 0 0 1 0 0 1 1 1 1 1 1 0 0 1 2 3 3 3 3 2 3
4 3 4 5 4 2 1 2 3 4 6 5 5 5 4 4 3 3 3 3 2 2 1 0 1 1 1 1 1 1 1 1 1 1 1 1 1 1 2 2 3 3 3 3
5 4 6 8 6 4 3 2 3 4 5 5 5 5 4 4 4 3 3 3 3 2 1 1 2 2 2 2 2 2 1 1 1 2 1 1 1 1 1 1 1 2 3 4
7 7 7 6 5 5 4 4 4 3 4 4 5 5 4 4 4 4 3 3 2 2 2 2 2 2 2 3 3 2 1 1 1 1 1 1 1 1 2 2 1 1 2 3
Wind_Direction
207 221 228 224 225 249 266 274 267 233 203 207 227 232 206 178 192 197 185 182 171 163 161 155 145 137 143 139 135 133 134 131 120 110 105 120 123 119 107 106 78 48 59 66
215 229 235 240 245 253 252 263 260 228 219 243 246 246 234 183 183 183 191 187 174 164 159 156 152 149 159 143 142 142 141 143 128 121 129 129 137 149 129 108 110 83 75 79
222 227 226 234 244 252 254 255 262 259 274 258 252 249 238 192 172 165 189 187 173 164 158 155 155 153 152 148 149 143 140 141 134 137 126 111 102 100 104 129 124 111 88 86
236 237 238 241 245 262 263 267 268 265 255 256 237 251 228 183 170 169 173 177 179 158 151 149 150 149 154 139 136 137 143 146 140 139 141 144 142 158 184 162 146 153 119 106
241 235 243 250 251 255 267 286 268 265 263 271 254 250 217 177 175 172 166 165 177 153 152 154 153 155 150 141 141 148 145 138 135 140 138 155 160 185 161 144 144 157 138 134
247 239 247 259 259 261 263 265 261 252 251 254 247 240 217 190 173 159 161 161 164 152 148 149 146 149 145 142 144 151 148 141 132 133 140 166 172 179 146 156 165 170 152 169
235 222 218 235 247 235 246 255 254 235 219 237 223 221 186 122 117 132 141 145 148 146 146 143 142 149 149 149 150 151 141 136 136 145 161 183 178 176 173 180 179 176 167 171
249 227 203 210 237 247 239 239 249 267 268 284 241 215 125 104 104 110 115 118 127 136 144 147 148 147 153 152 150 151 147 145 146 162 180 192 169 168 184 178 173 191 198 178
288 262 175 201 241 260 254 245 259 278 285 275 236 176 152 129 122 117 117 116 126 128 134 142 146 146 148 152 151 153 152 155 163 173 187 194 178 178 176 183 192 197 202 175
296 285 245 202 231 238 260 280 272 251 277 275 262 226 178 146 138 131 124 122 113 117 130 138 143 149 150 151 155 162 165 167 164 166 198 192 189 198 191 184 194 198 198 183
292 273 251 208 216 233 225 237 246 255 258 271 286 360 72 124 129 132 134 129 124 120 131 137 139 142 148 152 162 170 172 169 166 170 191 205 202 208 208 186 197 194 203 188
301 291 261 242 218 231 242 250 252 251 266 272 279 281 92 99 100 100 104 132 138 127 127 127 127 135 146 160 169 173 172 174 173 181 193 197 198 216 208 193 191 197 202 190
334 292 272 242 212 205 233 243 254 260 265 267 266 235 111 87 94 97 95 97 104 106 103 108 117 134 150 160 168 169 173 178 171 173 184 184 197 219 223 195 167 199 197 192
304 276 275 277 298 283 255 256 258 255 256 263 261 249 244 154 119 96 94 98 104 105 98 104 120 142 157 160 159 167 177 169 161 165 176 189 203 211 216 174 170 208 192 177
260 271 282 289 290 289 282 270 259 255 259 266 280 280 275 268 127 119 123 106 108 106 100 109 126 125 153 154 156 166 174 170 163 163 180 195 205 204 201 173 184 183 151 167
247 271 287 284 277 270 271 266 257 256 259 264 272 275 278 313 328 126 131 114 117 120 127 119 131 142 163 188 183 185 191 191 184 176 185 200 199 189 180 179 168 154 157 175
256 263 276 276 280 282 264 261 251 249 250 256 267 277 271 264 267 220 113 108 138 130 146 162 191 142 187 195 192 203 203 211 201 185 185 200 190 175 181 173 157 159 170 183
257 268 274 280 279 258 259 305 299 281 278 276 288 314 318 311 331 41 71 107 92 79 112 148 203 148 65 56 54 83 215 214 202 192 185 187 175 173 174 166 168 172 170 177
245 249 261 265 269 273 269 295 323 292 283 313 302 308 349 6 331 355 47 56 65 65 69 46 20 5 30 20 45 22 227 200 175 171 180 156 160 169 172 170 172 162 156 174
223 237 245 255 262 263 303 25 5 317 278 11 358 346 358 340 292 351 43 33 29 53 60 49 23 353 346 20 50 287 227 203 208 170 166 148 148 164 173 169 169 157 162 177
217 224 234 249 258 263 347 18 344 266 357 18 357 346 349 331 344 359 13 12 15 40 60 57 28 351 336 25 29 287 267 252 282 102 128 149 155 172 164 157 151 147 164 169
261 250 239 243 248 255 37 15 332 349 360 357 352 351 351 357 2 0 360 351 345 27 60 59 350 303 326 352 310 280 285 352 65 74 139 158 158 162 152 146 155 158 166 162
249 264 280 260 243 13 36 357 358 347 338 349 353 350 344 336 338 331 320 310 292 281 286 314 279 273 264 266 282 265 278 76 94 96 292 218 162 151 156 164 170 166 166 167
276 282 273 274 262 267 288 327 339 341 331 340 343 337 333 319 316 311 305 296 285 272 233 215 249 264 277 287 285 251 229 163 173 203 222 222 172 148 161 162 167 166 178 178
292 299 281 273 278 284 275 301 313 315 318 330 337 334 328 320 309 305 297 292 294 285 254 238 248 251 253 264 261 245 239 192 225 232 235 214 179 158 157 165 181 184 185 177
265 264 266 276 305 303 311 345 336 317 313 318 320 318 322 311 304 300 293 293 293 294 284 271 267 262 251 245 249 230 200 193 221 235 242 224 204 168 175 172 161 118 166 157
Height
1469 1472 1473 1470 1469 1470 1471 1474 1476 1474 1469 1473 1476 1477 1476 1477 1481 1483 1485 1488 1490 1493 1496 1499 1501 1503 1506 1508 1510 1511 1513 1515 1516 1517 1518 1519 1520 1521 1522 1523 1524 1524 1525 1525
1469 1471 1466 1465 1466 1468 1470 1474 1475 1471 1469 1471 1475 1475 1473 1474 1477 1480 1482 1485 1487 1490 1494 1496 1499 1502 1504 1506 1508 1510 1512 1513 1515 1516 1517 1519 1520 1521 1522 1523 1523 1524 1524 1524
1467 1466 1464 1466 1467 1469 1469 1472 1474 1474 1471 1470 1474 1479 1474 1471 1474 1477 1481 1483 1485 1488 1491 1494 1497 1500 1502 1504 1506 1508 1510 1512 1513 1515 1516 1518 1519 1520 1521 1522 1522 1523 1523 1524
1464 1462 1464 1466 1468 1469 1473 1467 1468 1471 1477 1480 1476 1489 1476 1470 1473 1475 1478 1481 1483 1486 1489 1492 1495 1498 1500 1502 1505 1507 1509 1510 1512 1513 1515 1516 1517 1518 1520 1521 1521 1522 1523 1523
1464 1463 1465 1467 1467 1466 1469 1465 1467 1469 1474 1479 1475 1482 1476 1467 1473 1473 1475 1479 1482 1484 1487 1490 1493 1496 1498 1500 1503 1505 1507 1508 1510 1511 1513 1514 1516 1517 1518 1519 1520 1521 1521 1522
1462 1462 1463 1464 1464 1464 1464 1466 1467 1467 1474 1487 1475 1478 1479 1469 1468 1470 1473 1476 1480 1483 1486 1489 1491 1494 1496 1498 1501 1503 1505 1507 1508 1509 1511 1512 1514 1515 1517 1518 1518 1519 1520 1521
1464 1461 1461 1462 1465 1464 1465 1475 1486 1487 1489 1485 1466 1472 1474 1463 1462 1466 1470 1475 1478 1481 1484 1487 1489 1491 1494 1496 1499 1501 1503 1504 1506 1507 1509 1510 1512 1513 1514 1515 1517 1517 1518 1519
1468 1467 1460 1460 1464 1467 1466 1472 1488 1495 1489 1479 1468 1472 1468 1460 1463 1466 1470 1474 1477 1480 1483 1486 1487 1489 1491 1493 1496 1499 1501 1502 1504 1506 1507 1509 1510 1511 1512 1513 1514 1515 1516 1517
1468 1467 1459 1460 1461 1463 1467 1468 1467 1478 1478 1481 1473 1468 1464 1461 1464 1467 1471 1474 1477 1479 1482 1484 1486 1488 1490 1492 1494 1496 1498 1500 1502 1504 1505 1507 1508 1509 1510 1511 1512 1513 1514 1515
1467 1470 1461 1460 1462 1463 1464 1466 1471 1479 1488 1489 1477 1471 1472 1467 1467 1468 1471 1474 1476 1479 1481 1483 1484 1486 1488 1490 1492 1495 1496 1498 1500 1501 1503 1505 1506 1507 1508 1509 1510 1510 1511 1512
1467 1470 1465 1462 1465 1466 1466 1467 1469 1473 1475 1486 1488 1482 1461 1464 1465 1468 1471 1474 1477 1478 1481 1482 1484 1485 1487 1489 1491 1493 1495 1496 1498 1499 1501 1502 1503 1505 1505 1506 1507 1508 1508 1509
1469 1470 1469 1462 1457 1458 1461 1464 1468 1480 1480 1475 1483 1484 1461 1463 1465 1468 1471 1473 1475 1478 1480 1481 1483 1484 1486 1487 1489 1491 1492 1494 1495 1497 1498 1499 1501 1502 1503 1503 1504 1505 1506 1506
1474 1475 1476 1471 1467 1462 1463 1463 1464 1468 1474 1478 1484 1483 1462 1464 1467 1469 1471 1473 1475 1477 1479 1480 1482 1483 1484 1486 1487 1489 1490 1491 1493 1494 1495 1497 1498 1499 1500 1500 1501 1502 1503 1504
1477 1476 1478 1480 1473 1466 1466 1464 1463 1468 1477 1477 1475 1474 1467 1467 1468 1469 1471 1473 1475 1477 1478 1480 1481 1482 1483 1484 1485 1486 1488 1489 1490 1491 1492 1494 1495 1496 1497 1497 1498 1499 1500 1500
1476 1477 1472 1469 1466 1465 1465 1465 1464 1467 1469 1473 1470 1468 1466 1466 1467 1469 1471 1473 1474 1476 1478 1479 1480 1481 1482 1483 1484 1485 1485 1487 1488 1488 1489 1490 1492 1493 1494 1494 1495 1496 1497 1499
1474 1476 1473 1471 1465 1464 1465 1463 1463 1464 1465 1466 1466 1466 1463 1464 1466 1468 1470 1472 1474 1476 1477 1478 1479 1479 1480 1481 1482 1483 1483 1484 1485 1486 1487 1488 1489 1490 1491 1492 1492 1494 1495 1495
1473 1474 1477 1475 1466 1465 1468 1461 1460 1460 1459 1462 1466 1464 1462 1464 1465 1467 1469 1471 1473 1474 1475 1477 1477 1478 1479 1480 1480 1480 1481 1482 1483 1483 1484 1485 1486 1487 1487 1488 1489 1491 1492 1493
1473 1474 1475 1475 1474 1479 1465 1454 1455 1458 1458 1458 1459 1460 1461 1463 1465 1466 1468 1469 1471 1473 1474 1475 1475 1476 1477 1478 1478 1478 1479 1479 1480 1480 1481 1482 1483 1483 1484 1485 1486 1487 1489 1489
1469 1472 1476 1477 1478 1471 1461 1456 1457 1461 1461 1459 1459 1460 1462 1463 1465 1466 1468 1469 1470 1471 1472 1473 1474 1474 1475 1475 1475 1476 1476 1477 1477 1478 1478 1479 1479 1480 1481 1482 1483 1484 1486 1487
1466 1468 1474 1475 1479 1478 1466 1459 1458 1461 1465 1462 1461 1461 1462 1464 1467 1468 1468 1469 1469 1470 1470 1471 1472 1472 1473 1473 1473 1474 1474 1474 1474 1475 1475 1476 1476 1477 1478 1479 1480 1482 1483 1484
1468 1469 1473 1474 1476 1469 1463 1461 1460 1470 1470 1463 1463 1464 1464 1465 1467 1468 1467 1468 1468 1468 1469 1469 1470 1470 1471 1471 1471 1471 1472 1472 1472 1472 1473 1473 1474 1474 1476 1477 1478 1479 1481 1482
1468 1469 1470 1471 1475 1474 1463 1463 1465 1467 1465 1465 1465 1465 1465 1465 1465 1465 1466 1466 1467 1467 1467 1467 1468 1468 1469 1469 1469 1469 1469 1469 1470 1470 1470 1470 1471 1472 1473 1474 1476 1477 1478 1480
1465 1466 1466 1467 1469 1464 1463 1464 1465 1465 1465 1465 1465 1465 1465 1465 1465 1465 1465 1465 1465 1466 1465 1466 1466 1466 1466 1466 1466 1467 1467 1467 1467 1467 1467 1468 1469 1470 1471 1472 1473 1474 1475 1477
1463 1463 1464 1464 1462 1462 1463 1464 1464 1465 1465 1465 1465 1465 1464 1464 1464 1463 1463 1463 1463 1463 1463 1463 1463 1463 1463 1463 1464 1464 1464 1464 1464 1465 1465 1466 1466 1467 1468 1469 1470 1471 1472 1474
1464 1464 1464 1463 1461 1461 1461 1462 1463 1463 1463 1463 1463 1463 1463 1462 1462 1461 1461 1461 1461 1461 1461 1461 1461 1461 1460 1460 1461 1461 1461 1461 1461 1462 1462 1463 1463 1464 1465 1466 1467 1468 1469 1470
1463 1464 1465 1463 1461 1461 1461 1461 1461 1462 1462 1462 1462 1462 1461 1461 1460 1459 1459 1459 1458 1458 1458 1458 1458 1458 1457 1457 1458 1458 1458 1458 1458 1458 1459 1459 1460 1461 1461 1462 1462 1464 1465 1467